Location: Makakahi
(40.6833°S, 175.6000°E)
Time: 23:13:45
(UTC+00:00)

FENGYUN 1C DEB - Pass Details

Date: 11 December 2024
Orbit: 812 x 877 km, 98.8° (Epoch: 19 January)

Event Time Altitude Azimuth Distance (km) Brightness Sun altitude
Rises 09:20:56 0° 170° (S) 3,385 ? -15.0°
Reaches altitude 10° 09:23:18 10° 172° (S) 2,451 ? -15.3°
Maximum altitude 09:28:41 67° 253° (WSW) 907 ? -15.9°
Drops below altitude 10° 09:34:05 10° 334° (NNW) 2,459 ? -16.6°
Enters shadow 09:36:01 - 336° (NNW) 3,225 ? -16.8°
